QPF
0.00 0.00 0.01 0.00 0.00 0.00 0.00 0.00 0.00 0.00 0.00 0.01 0.00 0.00 0.00 0.01 0.01 0.00 0.00 0.00 0.00 0.00 0.00 0.00 0.00 0.01 0.01 0.01 0.00 0.01 0.01 0.01 0.01 0.01 0.01 0.02 0.04 0.05 0.05 0.04 0.03 0.02 0.03
0.00 0.00 0.01 0.00 0.00 0.00 0.00 0.00 0.00 0.00 0.00 0.01 0.01 0.00 0.00 0.00 0.00 0.00 0.00 0.00 0.00 0.00 0.00 0.00 0.00 0.01 0.01 0.01 0.01 0.01 0.01 0.02 0.02 0.03 0.03 0.04 0.05 0.07 0.06 0.03 0.02 0.01 0.02
0.00 0.00 0.00 0.01 0.01 0.00 0.00 0.00 0.00 0.00 0.00 0.00 0.01 0.01 0.00 0.00 0.00 0.00 0.00 0.00 0.00 0.00 0.00 0.00 0.00 0.01 0.01 0.01 0.01 0.01 0.01 0.02 0.04 0.06 0.05 0.04 0.06 0.09 0.08 0.05 0.03 0.01 0.01
0.00 0.00 0.00 0.00 0.00 0.00 0.00 0.00 0.00 0.00 0.00 0.00 0.01 0.01 0.01 0.01 0.00 0.00 0.00 0.00 0.00 0.00 0.00 0.00 0.01 0.01 0.01 0.01 0.01 0.01 0.01 0.01 0.04 0.05 0.04 0.04 0.06 0.08 0.11 0.06 0.03 0.01 0.01
0.00 0.00 0.00 0.01 0.00 0.00 0.00 0.00 0.00 0.00 0.00 0.00 0.00 0.01 0.01 0.01 0.02 0.01 0.01 0.01 0.01 0.01 0.00 0.01 0.01 0.00 0.00 0.01 0.01 0.01 0.01 0.02 0.03 0.04 0.04 0.03 0.05 0.08 0.08 0.05 0.03 0.02 0.01
0.00 0.00 0.01 0.01 0.00 0.00 0.00 0.00 0.00 0.00 0.00 0.00 0.00 0.00 0.01 0.01 0.01 0.01 0.01 0.01 0.01 0.01 0.01 0.01 0.01 0.00 0.00 0.00 0.00 0.01 0.01 0.02 0.02 0.02 0.02 0.02 0.03 0.06 0.06 0.04 0.03 0.02 0.02
0.01 0.01 0.01 0.02 0.01 0.00 0.00 0.00 0.00 0.00 0.00 0.00 0.00 0.00 0.01 0.01 0.01 0.01 0.01 0.01 0.01 0.01 0.01 0.01 0.00 0.00 0.00 0.00 0.00 0.01 0.01 0.02 0.02 0.02 0.03 0.03 0.03 0.06 0.06 0.06 0.04 0.02 0.01
0.01 0.01 0.02 0.02 0.01 0.00 0.00 0.00 0.00 0.00 0.00 0.00 0.00 0.00 0.01 0.01 0.01 0.02 0.02 0.02 0.02 0.01 0.01 0.01 0.00 0.01 0.00 0.00 0.00 0.01 0.01 0.02 0.02 0.02 0.03 0.03 0.03 0.06 0.08 0.09 0.05 0.02 0.02
0.01 0.01 0.01 0.01 0.01 0.01 0.01 0.00 0.00 0.00 0.00 0.00 0.00 0.00 0.01 0.01 0.01 0.01 0.01 0.01 0.02 0.01 0.01 0.01 0.01 0.01 0.01 0.01 0.01 0.01 0.02 0.02 0.02 0.03 0.03 0.03 0.02 0.06 0.08 0.09 0.06 0.04 0.03
0.01 0.01 0.01 0.01 0.01 0.01 0.01 0.01 0.01 0.00 0.00 0.01 0.01 0.01 0.01 0.01 0.01 0.01 0.01 0.01 0.01 0.02 0.02 0.02 0.02 0.02 0.01 0.01 0.01 0.01 0.02 0.02 0.01 0.01 0.02 0.02 0.03 0.06 0.10 0.10 0.08 0.06 0.03
0.01 0.01 0.01 0.01 0.01 0.01 0.02 0.01 0.01 0.00 0.00 0.00 0.01 0.01 0.01 0.01 0.01 0.01 0.01 0.02 0.03 0.04 0.05 0.05 0.04 0.03 0.02 0.02 0.02 0.02 0.02 0.01 0.01 0.01 0.01 0.02 0.04 0.07 0.11 0.11 0.09 0.08 0.06
0.01 0.01 0.01 0.01 0.01 0.01 0.00 0.01 0.01 0.01 0.00 0.00 0.00 0.00 0.00 0.00 0.01 0.01 0.01 0.03 0.07 0.07 0.07 0.07 0.06 0.05 0.04 0.03 0.03 0.03 0.02 0.02 0.01 0.01 0.02 0.02 0.05 0.08 0.13 0.12 0.11 0.10 0.08
0.02 0.01 0.01 0.02 0.01 0.02 0.01 0.01 0.02 0.02 0.01 0.01 0.01 0.01 0.01 0.01 0.02 0.01 0.01 0.02 0.04 0.06 0.05 0.05 0.06 0.05 0.05 0.04 0.04 0.03 0.03 0.02 0.02 0.02 0.03 0.03 0.07 0.11 0.16 0.16 0.13 0.13 0.13
0.05 0.04 0.04 0.03 0.03 0.04 0.05 0.04 0.03 0.03 0.02 0.03 0.03 0.04 0.04 0.05 0.05 0.04 0.03 0.03 0.03 0.05 0.04 0.03 0.02 0.03 0.04 0.04 0.04 0.04 0.04 0.04 0.04 0.03 0.04 0.04 0.09 0.12 0.15 0.17 0.17 0.15 0.14
0.07 0.07 0.08 0.08 0.08 0.08 0.08 0.07 0.04 0.03 0.03 0.04 0.06 0.06 0.06 0.06 0.06 0.05 0.05 0.05 0.05 0.06 0.05 0.03 0.01 0.02 0.04 0.04 0.04 0.05 0.04 0.03 0.05 0.04 0.04 0.04 0.07 0.10 0.14 0.18 0.19 0.17 0.16
0.09 0.10 0.09 0.09 0.10 0.11 0.09 0.06 0.05 0.05 0.05 0.05 0.05 0.05 0.06 0.06 0.06 0.06 0.07 0.07 0.07 0.06 0.06 0.05 0.03 0.04 0.04 0.04 0.03 0.03 0.04 0.05 0.06 0.07 0.06 0.04 0.05 0.07 0.10 0.14 0.19 0.19 0.17
0.11 0.09 0.08 0.08 0.10 0.10 0.10 0.07 0.06 0.07 0.07 0.07 0.07 0.06 0.06 0.06 0.06 0.06 0.07 0.07 0.08 0.09 0.09 0.07 0.06 0.05 0.04 0.03 0.03 0.04 0.05 0.06 0.07 0.06 0.05 0.05 0.05 0.06 0.07 0.09 0.13 0.17 0.18
0.11 0.08 0.08 0.09 0.08 0.08 0.10 0.11 0.12 0.13 0.13 0.14 0.13 0.11 0.09 0.07 0.08 0.09 0.11 0.11 0.10 0.10 0.10 0.08 0.06 0.04 0.03 0.03 0.03 0.03 0.04 0.05 0.05 0.04 0.04 0.04 0.05 0.05 0.06 0.08 0.10 0.12 0.15
0.10 0.09 0.08 0.08 0.09 0.11 0.15 0.17 0.18 0.20 0.21 0.20 0.17 0.16 0.14 0.11 0.10 0.14 0.15 0.15 0.13 0.11 0.09 0.07 0.05 0.04 0.04 0.03 0.03 0.03 0.03 0.03 0.03 0.03 0.02 0.03 0.04 0.05 0.06 0.08 0.10 0.12 0.14
0.06 0.06 0.07 0.08 0.10 0.13 0.16 0.18 0.19 0.18 0.17 0.16 0.14 0.12 0.10 0.09 0.10 0.14 0.14 0.12 0.12 0.10 0.08 0.08 0.07 0.06 0.05 0.04 0.04 0.03 0.02 0.02 0.02 0.03 0.03 0.03 0.03 0.03 0.03 0.05 0.08 0.11 0.13
0.07 0.07 0.06 0.07 0.08 0.09 0.10 0.11 0.13 0.15 0.16 0.15 0.12 0.10 0.09 0.09 0.10 0.11 0.10 0.09 0.08 0.08 0.08 0.07 0.07 0.07 0.06 0.05 0.04 0.03 0.03 0.02 0.02 0.02 0.03 0.03 0.03 0.02 0.02 0.03 0.05 0.07 0.08
0.09 0.08 0.07 0.07 0.08 0.08 0.10 0.11 0.11 0.11 0.11 0.10 0.09 0.08 0.09 0.09 0.10 0.10 0.09 0.07 0.06 0.05 0.04 0.05 0.05 0.05 0.04 0.05 0.04 0.05 0.04 0.03 0.02 0.02 0.02 0.03 0.03 0.03 0.03 0.03 0.03 0.05 0.05
0.11 0.09 0.07 0.08 0.08 0.08 0.09 0.10 0.08 0.07 0.07 0.07 0.06 0.07 0.08 0.09 0.11 0.12 0.13 0.10 0.08 0.07 0.06 0.07 0.06 0.05 0.04 0.03 0.04 0.05 0.05 0.04 0.03 0.02 0.02 0.03 0.04 0.04 0.04 0.03 0.04 0.05 0.05
0.08 0.09 0.08 0.07 0.07 0.07 0.07 0.06 0.06 0.04 0.06 0.06 0.05 0.05 0.06 0.07 0.09 0.11 0.11 0.10 0.09 0.09 0.08 0.08 0.07 0.05 0.04 0.04 0.04 0.05 0.05 0.04 0.04 0.03 0.03 0.03 0.05 0.07 0.07 0.06 0.05 0.04 0.04
0.04 0.06 0.07 0.09 0.08 0.08 0.08 0.08 0.07 0.05 0.05 0.06 0.06 0.06 0.06 0.06 0.06 0.07 0.08 0.09 0.09 0.09 0.08 0.08 0.07 0.05 0.04 0.04 0.05 0.06 0.07 0.06 0.04 0.03 0.04 0.04 0.06 0.07 0.08 0.09 0.09 0.09 0.07
0.03 0.04 0.04 0.07 0.10 0.09 0.08 0.08 0.07 0.06 0.05 0.05 0.05 0.05 0.04 0.04 0.05 0.07 0.08 0.06 0.06 0.07 0.07 0.08 0.07 0.05 0.05 0.04 0.03 0.03 0.03 0.03 0.03 0.03 0.07 0.08 0.04 0.04 0.06 0.06 0.06 0.07 0.09
MSLP
1010.17 1009.92 1009.88 1010.06 1010.40 1010.80 1011.17 1011.44 1011.60 1011.67 1011.70 1011.76 1011.93 1012.22 1012.63 1013.12 1013.63 1014.08 1014.43 1014.66 1014.79 1014.85 1014.88 1014.93 1015.02 1015.15 1015.30 1015.45 1015.57 1015.66 1015.72 1015.77 1015.84 1015.94 1016.07 1016.22 1016.38 1016.51 1016.62 1016.69 1016.74 1016.79 1016.86
1009.90 1009.72 1009.73 1009.95 1010.32 1010.75 1011.16 1011.49 1011.72 1011.86 1011.97 1012.10 1012.32 1012.63 1013.03 1013.48 1013.92 1014.29 1014.57 1014.74 1014.84 1014.89 1014.94 1015.03 1015.15 1015.31 1015.47 1015.61 1015.71 1015.77 1015.81 1015.84 1015.90 1016.00 1016.15 1016.32 1016.49 1016.64 1016.76 1016.84 1016.89 1016.94 1017.02
1009.55 1009.45 1009.53 1009.81 1010.23 1010.71 1011.18 1011.59 1011.89 1012.12 1012.31 1012.51 1012.76 1013.08 1013.45 1013.83 1014.18 1014.46 1014.65 1014.76 1014.82 1014.87 1014.95 1015.07 1015.23 1015.42 1015.60 1015.74 1015.82 1015.87 1015.89 1015.91 1015.97 1016.08 1016.24 1016.43 1016.62 1016.79 1016.91 1016.99 1017.05 1017.10 1017.17
1009.18 1009.16 1009.33 1009.69 1010.17 1010.73 1011.26 1011.73 1012.11 1012.41 1012.66 1012.91 1013.18 1013.48 1013.80 1014.11 1014.37 1014.56 1014.67 1014.72 1014.76 1014.81 1014.91 1015.07 1015.27 1015.49 1015.68 1015.83 1015.91 1015.95 1015.96 1015.99 1016.05 1016.18 1016.35 1016.56 1016.76 1016.93 1017.05 1017.13 1017.18 1017.23 1017.30
1008.85 1008.93 1009.19 1009.63 1010.20 1010.81 1011.40 1011.92 1012.34 1012.68 1012.96 1013.22 1013.49 1013.77 1014.04 1014.28 1014.47 1014.59 1014.64 1014.66 1014.68 1014.74 1014.86 1015.05 1015.29 1015.53 1015.74 1015.89 1015.98 1016.01 1016.03 1016.06 1016.14 1016.28 1016.47 1016.68 1016.88 1017.04 1017.15 1017.22 1017.27 1017.31 1017.39
1008.66 1008.83 1009.18 1009.71 1010.33 1010.98 1011.59 1012.12 1012.54 1012.87 1013.14 1013.39 1013.64 1013.89 1014.13 1014.33 1014.47 1014.55 1014.58 1014.58 1014.61 1014.68 1014.83 1015.04 1015.30 1015.55 1015.78 1015.93 1016.02 1016.06 1016.09 1016.13 1016.21 1016.36 1016.54 1016.75 1016.94 1017.08 1017.18 1017.24 1017.27 1017.32 1017.40
1008.66 1008.91 1009.34 1009.92 1010.57 1011.22 1011.81 1012.29 1012.66 1012.95 1013.18 1013.40 1013.63 1013.86 1014.08 1014.27 1014.41 1014.48 1014.51 1014.53 1014.56 1014.65 1014.82 1015.04 1015.30 1015.56 1015.79 1015.94 1016.03 1016.08 1016.10 1016.15 1016.24 1016.37 1016.55 1016.74 1016.91 1017.03 1017.11 1017.15 1017.18 1017.23 1017.33
1008.89 1009.20 1009.67 1010.27 1010.91 1011.51 1012.02 1012.42 1012.71 1012.91 1013.09 1013.27 1013.47 1013.70 1013.94 1014.14 1014.30 1014.40 1014.45 1014.49 1014.54 1014.64 1014.81 1015.03 1015.29 1015.55 1015.76 1015.91 1016.00 1016.04 1016.06 1016.11 1016.19 1016.31 1016.47 1016.63 1016.77 1016.87 1016.92 1016.95 1016.98 1017.04 1017.16
1009.30 1009.64 1010.13 1010.70 1011.28 1011.80 1012.20 1012.48 1012.66 1012.78 1012.89 1013.03 1013.24 1013.48 1013.75 1013.99 1014.19 1014.33 1014.41 1014.46 1014.53 1014.63 1014.79 1015.00 1015.24 1015.47 1015.67 1015.81 1015.89 1015.94 1015.96 1016.00 1016.06 1016.17 1016.30 1016.43 1016.53 1016.61 1016.65 1016.67 1016.70 1016.77 1016.90
1009.82 1010.17 1010.63 1011.15 1011.64 1012.04 1012.32 1012.47 1012.54 1012.58 1012.64 1012.77 1012.98 1013.26 1013.56 1013.85 1014.09 1014.26 1014.37 1014.43 1014.49 1014.58 1014.72 1014.91 1015.12 1015.33 1015.52 1015.65 1015.73 1015.77 1015.79 1015.82 1015.87 1015.95 1016.05 1016.15 1016.23 1016.28 1016.31 1016.32 1016.36 1016.44 1016.59
1010.35 1010.68 1011.10 1011.53 1011.91 1012.19 1012.34 1012.39 1012.38 1012.36 1012.40 1012.54 1012.77 1013.08 1013.43 1013.75 1014.02 1014.21 1014.31 1014.37 1014.42 1014.48 1014.59 1014.75 1014.94 1015.13 1015.31 1015.44 1015.52 1015.56 1015.58 1015.60 1015.63 1015.69 1015.76 1015.83 1015.89 1015.93 1015.95 1015.96 1016.00 1016.09 1016.24
1010.81 1011.11 1011.45 1011.79 1012.06 1012.22 1012.27 1012.25 1012.18 1012.15 1012.20 1012.36 1012.62 1012.97 1013.34 1013.68 1013.96 1014.14 1014.23 1014.27 1014.28 1014.32 1014.40 1014.53 1014.70 1014.89 1015.05 1015.19 1015.27 1015.32 1015.33 1015.34 1015.36 1015.40 1015.45 1015.50 1015.55 1015.58 1015.59 1015.61 1015.65 1015.74 1015.88
1011.15 1011.39 1011.66 1011.89 1012.06 1012.13 1012.12 1012.05 1011.98 1011.96 1012.04 1012.24 1012.54 1012.90 1013.28 1013.62 1013.87 1014.03 1014.10 1014.11 1014.10 1014.11 1014.17 1014.28 1014.44 1014.62 1014.79 1014.92 1015.01 1015.06 1015.07 1015.08 1015.08 1015.10 1015.14 1015.18 1015.21 1015.24 1015.26 1015.28 1015.32 1015.40 1015.52
1011.37 1011.55 1011.72 1011.86 1011.94 1011.95 1011.90 1011.83 1011.78 1011.80 1011.93 1012.16 1012.48 1012.85 1013.21 1013.52 1013.74 1013.87 1013.91 1013.89 1013.87 1013.87 1013.92 1014.04 1014.19 1014.37 1014.54 1014.67 1014.76 1014.80 1014.81 1014.80 1014.79 1014.80 1014.82 1014.85 1014.88 1014.91 1014.94 1014.96 1015.00 1015.06 1015.15
1011.51 1011.61 1011.69 1011.75 1011.75 1011.72 1011.66 1011.61 1011.60 1011.67 1011.83 1012.09 1012.41 1012.76 1013.09 1013.35 1013.53 1013.63 1013.64 1013.63 1013.61 1013.63 1013.70 1013.82 1013.98 1014.15 1014.31 1014.44 1014.51 1014.53 1014.53 1014.50 1014.48 1014.47 1014.48 1014.50 1014.54 1014.57 1014.60 1014.63 1014.66 1014.70 1014.77
1011.65 1011.66 1011.65 1011.62 1011.56 1011.50 1011.44 1011.42 1011.45 1011.56 1011.75 1012.00 1012.30 1012.60 1012.87 1013.08 1013.22 1013.29 1013.32 1013.32 1013.34 1013.40 1013.50 1013.64 1013.81 1013.98 1014.12 1014.22 1014.26 1014.26 1014.22 1014.18 1014.13 1014.11 1014.11 1014.13 1014.16 1014.20 1014.23 1014.26 1014.28 1014.31 1014.36
1011.86 1011.78 1011.67 1011.55 1011.44 1011.35 1011.30 1011.29 1011.35 1011.48 1011.66 1011.88 1012.12 1012.35 1012.55 1012.70 1012.81 1012.88 1012.93 1012.98 1013.06 1013.18 1013.33 1013.50 1013.68 1013.83 1013.95 1014.00 1014.01 1013.97 1013.90 1013.83 1013.76 1013.73 1013.72 1013.73 1013.76 1013.79 1013.83 1013.85 1013.87 1013.89 1013.93
1012.21 1012.02 1011.81 1011.61 1011.45 1011.33 1011.27 1011.27 1011.33 1011.44 1011.58 1011.74 1011.89 1012.03 1012.15 1012.24 1012.32 1012.40 1012.50 1012.62 1012.78 1012.96 1013.17 1013.37 1013.55 1013.69 1013.76 1013.78 1013.74 1013.66 1013.57 1013.47 1013.39 1013.34 1013.32 1013.32 1013.34 1013.37 1013.39 1013.41 1013.43 1013.45 1013.48
1012.70 1012.41 1012.11 1011.83 1011.61 1011.45 1011.37 1011.36 1011.40 1011.47 1011.54 1011.61 1011.66 1011.69 1011.72 1011.75 1011.81 1011.90 1012.05 1012.24 1012.47 1012.73 1012.98 1013.21 1013.39 1013.50 1013.55 1013.52 1013.45 1013.34 1013.23 1013.12 1013.03 1012.97 1012.94 1012.93 1012.94 1012.95 1012.97 1012.98 1012.99 1013.01 1013.05
1013.31 1012.94 1012.55 1012.21 1011.93 1011.74 1011.63 1011.59 1011.59 1011.60 1011.59 1011.55 1011.49 1011.41 1011.33 1011.30 1011.32 1011.42 1011.60 1011.85 1012.14 1012.45 1012.74 1012.98 1013.16 1013.25 1013.27 1013.22 1013.13 1013.02 1012.90 1012.80 1012.72 1012.66 1012.62 1012.60 1012.59 1012.58 1012.57 1012.57 1012.58 1012.61 1012.66
1014.00 1013.56 1013.11 1012.70 1012.38 1012.15 1012.02 1011.95 1011.91 1011.86 1011.76 1011.62 1011.44 1011.24 1011.07 1010.95 1010.93 1011.01 1011.20 1011.47 1011.79 1012.12 1012.42 1012.66 1012.82 1012.90 1012.91 1012.86 1012.78 1012.68 1012.59 1012.52 1012.46 1012.41 1012.37 1012.33 1012.29 1012.25 1012.23 1012.21 1012.22 1012.26 1012.33
1014.69 1014.21 1013.71 1013.27 1012.92 1012.67 1012.52 1012.43 1012.36 1012.25 1012.08 1011.84 1011.56 1011.25 1010.97 1010.77 1010.68 1010.71 1010.87 1011.11 1011.41 1011.73 1012.01 1012.23 1012.37 1012.44 1012.45 1012.42 1012.38 1012.33 1012.28 1012.25 1012.22 1012.19 1012.15 1012.09 1012.03 1011.97 1011.92 1011.89 1011.90 1011.95 1012.06
1015.34 1014.85 1014.33 1013.87 1013.51 1013.25 1013.10 1013.00 1012.90 1012.76 1012.55 1012.24 1011.87 1011.47 1011.09 1010.79 1010.61 1010.56 1010.63 1010.81 1011.04 1011.29 1011.52 1011.70 1011.82 1011.88 1011.91 1011.91 1011.92 1011.93 1011.95 1011.97 1011.98 1011.96 1011.92 1011.85 1011.77 1011.68 1011.61 1011.58 1011.60 1011.68 1011.82
1015.93 1015.44 1014.92 1014.46 1014.09 1013.85 1013.70 1013.61 1013.51 1013.36 1013.12 1012.78 1012.35 1011.88 1011.42 1011.02 1010.73 1010.56 1010.52 1010.58 1010.70 1010.85 1010.99 1011.10 1011.19 1011.24 1011.28 1011.33 1011.39 1011.47 1011.55 1011.62 1011.67 1011.67 1011.62 1011.54 1011.44 1011.33 1011.26 1011.23 1011.28 1011.39 1011.58
1016.44 1015.97 1015.46 1015.00 1014.65 1014.41 1014.28 1014.20 1014.13 1013.99 1013.76 1013.40 1012.95 1012.43 1011.90 1011.41 1011.01 1010.71 1010.53 1010.45 1010.43 1010.45 1010.48 1010.51 1010.54 1010.58 1010.63 1010.71 1010.82 1010.95 1011.08 1011.18 1011.25 1011.26 1011.21 1011.12 1011.00 1010.89 1010.82 1010.82 1010.90 1011.06 1011.30
1016.90 1016.44 1015.95 1015.50 1015.15 1014.92 1014.80 1014.75 1014.69 1014.59 1014.37 1014.04 1013.58 1013.04 1012.47 1011.91 1011.41 1010.99 1010.67 1010.43 1010.26 1010.14 1010.05 1009.99 1009.95 1009.95 1010.00 1010.09 1010.23 1010.38 1010.54 1010.66 1010.73 1010.74 1010.68 1010.57 1010.45 1010.35 1010.30 1010.33 1010.46 1010.69 1010.99
Thickness
5794 5794 5791 5787 5784 5781 5779 5778 5776 5775 5773 5771 5769 5767 5765 5762 5760 5757 5755 5753 5751 5749 5747 5746 5744 5743 5742 5741 5741 5739 5738 5737 5735 5734 5733 5732 5730 5729 5728 5727 5726 5725 5724
5800 5795 5791 5787 5783 5780 5778 5776 5774 5772 5770 5768 5766 5764 5761 5759 5757 5755 5752 5750 5749 5747 5745 5743 5742 5741 5740 5739 5738 5737 5735 5734 5733 5732 5731 5729 5728 5727 5726 5725 5724 5723 5722
5799 5794 5790 5786 5782 5779 5776 5773 5771 5769 5767 5764 5762 5760 5758 5756 5754 5752 5749 5747 5746 5744 5742 5741 5740 5738 5737 5736 5735 5734 5733 5732 5731 5730 5728 5727 5726 5725 5724 5723 5722 5721 5720
5798 5793 5788 5784 5780 5777 5774 5771 5768 5766 5764 5761 5759 5757 5755 5753 5750 5748 5746 5744 5743 5741 5740 5738 5737 5736 5735 5734 5732 5731 5730 5730 5729 5727 5726 5725 5724 5723 5722 5721 5720 5719 5718
5795 5791 5787 5783 5779 5775 5772 5769 5766 5763 5761 5759 5757 5754 5752 5750 5748 5745 5743 5741 5740 5738 5737 5735 5734 5733 5732 5731 5730 5729 5728 5727 5726 5725 5724 5723 5722 5721 5720 5719 5718 5717 5717
5792 5788 5785 5780 5776 5773 5770 5767 5764 5761 5758 5756 5754 5752 5749 5747 5745 5742 5740 5738 5737 5735 5734 5733 5731 5730 5729 5729 5728 5727 5726 5725 5724 5723 5722 5721 5720 5720 5719 5717 5716 5716 5715
5787 5784 5781 5778 5774 5770 5767 5764 5761 5758 5755 5753 5751 5749 5746 5744 5742 5740 5737 5735 5734 5732 5731 5729 5728 5727 5726 5726 5725 5724 5724 5723 5722 5721 5720 5719 5718 5718 5717 5716 5715 5714 5713
5784 5780 5777 5774 5771 5767 5764 5761 5758 5756 5753 5750 5748 5746 5743 5741 5739 5737 5735 5733 5731 5729 5728 5727 5725 5724 5723 5723 5722 5722 5721 5721 5720 5719 5718 5717 5717 5716 5715 5714 5713 5712 5711
5779 5775 5772 5770 5767 5764 5761 5758 5755 5753 5750 5747 5745 5743 5740 5738 5736 5734 5732 5730 5728 5727 5726 5725 5723 5722 5721 5720 5720 5719 5718 5718 5718 5717 5716 5716 5715 5715 5714 5713 5712 5710 5709
5773 5771 5768 5766 5764 5761 5757 5755 5752 5749 5746 5744 5741 5739 5737 5735 5733 5731 5729 5728 5725 5724 5723 5722 5721 5720 5719 5718 5717 5717 5716 5716 5715 5715 5714 5714 5714 5714 5713 5712 5711 5709 5708
5767 5766 5764 5762 5759 5756 5753 5751 5748 5746 5743 5740 5738 5736 5734 5732 5730 5728 5726 5724 5723 5721 5721 5720 5718 5717 5717 5716 5715 5714 5714 5713 5713 5712 5712 5712 5712 5712 5712 5711 5709 5708 5707
5761 5761 5759 5757 5754 5751 5749 5747 5744 5742 5739 5736 5734 5732 5730 5728 5726 5724 5722 5721 5719 5718 5718 5717 5715 5714 5713 5713 5712 5712 5711 5711 5710 5710 5710 5711 5711 5711 5710 5709 5708 5707 5706
5759 5757 5755 5753 5749 5747 5744 5743 5740 5737 5735 5732 5730 5728 5726 5724 5722 5720 5719 5717 5715 5714 5714 5713 5712 5711 5710 5709 5708 5708 5707 5708 5707 5708 5708 5709 5709 5709 5709 5708 5707 5705 5704
5754 5752 5751 5749 5745 5743 5740 5738 5735 5733 5730 5728 5726 5724 5721 5719 5717 5716 5714 5712 5711 5710 5709 5708 5708 5707 5706 5705 5705 5705 5704 5704 5704 5705 5705 5706 5706 5707 5706 5706 5705 5704 5703
5747 5747 5747 5745 5742 5739 5736 5733 5731 5729 5726 5724 5721 5719 5717 5714 5712 5710 5709 5708 5706 5705 5704 5703 5703 5702 5701 5701 5701 5701 5701 5701 5701 5702 5702 5703 5703 5704 5704 5703 5703 5703 5702
5743 5742 5742 5739 5737 5734 5731 5729 5727 5724 5722 5719 5717 5715 5712 5710 5707 5705 5704 5702 5700 5699 5699 5698 5697 5697 5696 5696 5696 5696 5696 5697 5698 5698 5699 5700 5700 5700 5701 5701 5701 5701 5700
5739 5739 5737 5734 5732 5730 5728 5726 5723 5719 5716 5714 5712 5710 5708 5706 5704 5701 5699 5697 5695 5694 5693 5692 5691 5691 5691 5690 5691 5691 5692 5693 5693 5694 5695 5695 5695 5696 5697 5698 5698 5697 5698
5735 5733 5731 5730 5727 5725 5723 5720 5717 5713 5710 5708 5707 5705 5703 5701 5699 5696 5694 5692 5690 5688 5687 5686 5685 5684 5684 5684 5685 5686 5686 5687 5688 5689 5690 5690 5690 5691 5692 5693 5694 5694 5694
5729 5727 5725 5724 5721 5719 5717 5714 5711 5708 5705 5703 5701 5699 5697 5695 5693 5691 5689 5686 5684 5682 5681 5680 5679 5678 5678 5677 5678 5680 5680 5680 5681 5682 5683 5684 5684 5684 5685 5687 5688 5689 5690
5724 5722 5720 5718 5716 5713 5710 5708 5705 5702 5699 5697 5695 5693 5691 5689 5687 5685 5682 5680 5678 5676 5674 5673 5672 5672 5671 5670 5672 5672 5672 5673 5674 5674 5675 5676 5677 5678 5679 5680 5682 5683 5684
5718 5716 5715 5712 5709 5707 5703 5700 5697 5694 5692 5690 5688 5686 5685 5683 5681 5679 5676 5674 5672 5670 5668 5666 5665 5663 5663 5662 5662 5662 5663 5664 5666 5667 5667 5668 5669 5670 5671 5673 5675 5676 5677
5714 5711 5708 5705 5702 5700 5697 5694 5691 5688 5686 5684 5681 5679 5678 5676 5674 5672 5670 5667 5665 5662 5660 5658 5656 5655 5654 5654 5652 5651 5651 5653 5656 5658 5658 5659 5660 5661 5663 5665 5667 5668 5670
5708 5707 5705 5700 5697 5694 5691 5687 5684 5680 5678 5676 5674 5671 5670 5668 5667 5665 5662 5660 5657 5655 5652 5650 5648 5647 5645 5644 5644 5643 5641 5641 5643 5647 5648 5650 5651 5652 5654 5656 5658 5660 5662
5704 5702 5698 5694 5691 5688 5685 5681 5677 5673 5669 5668 5666 5664 5662 5660 5659 5657 5655 5653 5650 5647 5645 5643 5641 5639 5638 5636 5635 5635 5634 5634 5632 5635 5639 5640 5641 5642 5644 5647 5649 5651 5654
5698 5695 5691 5687 5683 5680 5677 5673 5669 5666 5663 5660 5658 5656 5654 5653 5651 5649 5647 5645 5643 5640 5638 5636 5634 5632 5630 5629 5628 5627 5626 5625 5624 5625 5627 5630 5631 5633 5635 5638 5640 5642 5645
5692 5689 5685 5680 5676 5672 5668 5665 5662 5658 5654 5651 5649 5647 5645 5644 5643 5641 5639 5637 5635 5633 5630 5628 5626 5625 5623 5622 5620 5619 5618 5618 5617 5617 5618 5620 5621 5624 5626 5629 5631 5633 5636